[[{"header":{"parameterUnit":"m.s-1","parameterCategory":1,"la1":30.2991,"la2":30.254,"lo1":-89.0895,"lo2":-89.0444,"dy":0.0017,"dx":0.0017,"nx":28,"ny":28,"refTime":"2024-06-19T03:00:00:Z","depth":0,"parameterNumber":2,"parameterNumberName":"U-component_of_WINDS"},"data":[0,0,0,0,0,0,0,0,0,0,0,0,0,0,0,0,0,0,0,0,0,0,0,0,0,0,0,0,0,0,0,0,0,0,0,0,0,0,0,0,0,0,0,0,0,0,0,0,0,0,0,0,0,0,0,0,0,0,-8.1342,-8.1342,0,-8.1404,-8.1404,-8.1405,-8.1165,-8.1158,-8.1151,-8.1144,-8.121,-8.1218,-8.1226,0,0,0,0,0,0,0,0,0,0,0,0,0,-8.1016,-8.1023,-8.1342,-8.1342,-8.1343,-8.1404,-8.1404,-8.1405,-8.1166,-8.1158,-8.1149,-8.1141,-8.1207,-8.1217,-8.1227,0,0,0,0,0,0,0,0,0,0,0,0,0,-8.1126,-8.1026,-8.1341,-8.1231,-8.1222,-8.1403,-8.1404,-8.1406,-8.1168,-8.1158,-8.1147,-8.1137,-8.1204,-8.1216,-8.1229,-8.152,0,0,-8.1267,-8.1272,0,0,0,0,0,0,0,0,-8.112,-8.1138,-8.1247,-8.1239,-8.1229,-8.1266,-8.1313,-8.1444,-8.1171,-8.1189,-8.1144,-8.1132,-8.1237,-8.1246,-8.1282,-8.1523,-8.1526,-8.1268,-8.1276,-8.1281,-8.1285,0,0,0,0,0,0,0,-8.1113,-8.1134,-8.1366,-8.1249,-8.1238,-8.1179,-8.1182,-8.1337,-8.1272,-8.1186,-8.1169,-8.118,-8.123,-8.127,-8.1281,-8.1527,-8.1268,-8.1279,-8.1287,-8.1292,-8.2008,-8.2018,0,0,0,0,0,0,-8.112,-8.1129,-8.1364,-8.1368,-8.1147,-8.1193,-8.1197,-8.1265,-8.127,-8.126,-8.1189,-8.1168,-8.1254,-8.1267,-8.1283,-8.1622,-8.1281,-8.1293,-8.13,-8.1996,-8.201,-8.2023,0,0,0,0,0,0,-8.1114,-8.1143,-8.1362,-8.1244,-8.1267,-8.121,-8.1288,-8.1272,-8.1311,-8.1272,-8.1259,-8.1241,-8.1246,-8.1265,-8.1462,-8.1621,-8.1298,-8.131,-8.1983,-8.2,-8.2016,-8.2306,0,0,0,0,0,0,-8.1105,-8.1142,-8.1252,-8.1248,-8.1275,-8.1541,-8.1298,-8.1281,-8.1333,-8.1307,-8.1317,-8.1309,-8.1239,-8.1445,-8.1475,-8.1633,-8.132,-8.1968,-8.1991,-8.2011,-8.2282,-8.2331,-8.2373,0,0,0,0,0,-8.1094,-8.1332,-8.1259,-8.1289,-8.1411,-8.155,-8.1565,-8.148,-8.1347,-8.1457,-8.1431,-8.1309,-8.1599,-8.1467,-8.1498,-8.1663,-8.1958,-8.1984,-8.2009,-8.2261,-8.2321,-8.2372,0,0,0,0,0,0,-8.1358,-8.133,-8.1248,-8.1492,-8.1525,-8.151,-8.1646,-8.1546,-8.1618,-8.1591,-8.1481,-8.1486,-8.1702,-8.1702,-8.1555,-8.1944,-8.1755,-8.1789,-8.1936,-8.1993,-8.2037,-8.2033,-8.133,0,0,0,0,0,-8.1444,-8.1559,-8.1528,-8.1746,-8.1767,-8.1705,-8.1762,-8.1693,-8.1723,-8.1736,-8.1725,-8.1759,-8.1857,-8.1925,-8.2014,-8.228,-8.2278,-8.2409,-8.2455,-8.2492,-8.2522,-8.2661,-8.2719,-8.2107,-8.2107,-8.2107,0,0,-8.1623,-8.1622,-8.1702,-8.1799,-8.1817,-8.1938,-8.1718,-8.1856,-8.1945,-8.1757,-8.1941,-8.1935,-8.1966,-8.2199,-8.2301,-8.2205,-8.2691,-8.2525,-8.2555,-8.2565,-8.2694,-8.2752,-8.2803,-8.2125,-8.2122,-8.2119,0,0,-8.2012,-8.2024,-8.2205,-8.2227,-8.2256,-8.2213,-8.2257,-8.2256,-8.2244,-8.2427,-8.2288,-8.2393,-8.2566,-8.2593,-8.2629,-8.3028,-8.2917,-8.306,-8.3297,-8.3434,-8.3482,-8.3525,-8.3665,-8.3717,-8.309,-8.3091,-8.3091,0,-8.2232,-8.2409,-8.2312,-8.2459,-8.2505,-8.234,-8.2522,-8.2549,-8.2606,-8.2642,-8.2534,-8.2746,-8.2756,-8.2991,-8.3088,-8.3124,-8.317,-8.3058,-8.3483,-8.3525,-8.3562,-8.3695,-8.3749,-8.3108,-8.3106,-8.3104,-8.3102,0,-8.2677,-8.2802,-8.2945,-8.3003,-8.3065,-8.3231,-8.3158,-8.3233,-8.3158,-8.3126,-8.3315,-8.332,-8.3406,-8.3457,-8.3386,-8.3683,-8.3623,-8.3502,-8.331,-8.3639,-8.3762,-8.3813,-8.3132,-8.3126,-8.3121,-8.3117,0,0,-8.3233,-8.3234,-8.3289,-8.3312,-8.3332,-8.3426,-8.3583,-8.3666,-8.3732,-8.3777,-8.3905,-8.4055,-8.3942,-8.3984,-8.3914,-8.4035,-8.4348,-8.3898,-8.3897,-8.398,-8.4674,-8.4765,-8.4825,-8.4275,-8.4284,-8.4292,-8.4671,0,-8.3614,-8.388,-8.3797,-8.4067,-8.418,-8.4024,-8.416,-8.4187,-8.4162,-8.4254,-8.4225,-8.4332,-8.4176,-8.42,-8.4312,-8.4287,-8.4486,-8.4258,-8.4393,-8.4399,-8.4389,-8.4889,-8.4986,-8.5343,-8.4718,-8.4727,-8.4732,0,-8.4093,-8.4156,-8.4437,-8.4435,-8.4479,-8.4604,-8.4672,-8.4763,-8.479,-8.4762,-8.4809,-8.4714,-8.4867,-8.4676,-8.4885,-8.4732,-8.4782,-8.4778,-8.4789,-8.4798,-8.4585,-8.4911,-8.5455,-8.5509,-8.4807,-8.4801,-8.4796,0,-8.4469,-8.4624,-8.4811,-8.4836,-8.484,-8.493,-8.4936,-8.4952,-8.5007,-8.5067,-8.5102,-8.518,-8.5223,-8.5286,-8.5214,-8.5082,-8.5434,-8.5237,-8.5415,-8.5417,-8.5495,-8.5491,-8.6055,-8.5531,-8.553,-8.5529,-8.5528,0,-8.4902,-8.508,-8.498,-8.5095,-8.5289,-8.5191,-8.5386,-8.5374,-8.539,-8.55,-8.537,-8.5477,-8.5376,-8.5473,-8.5419,-8.5599,-8.562,-8.5602,-8.5585,-8.5613,-8.5615,-8.5643,-8.5616,-8.5543,-8.554,-8.5537,-8.5535,0,-8.5354,-8.5295,-8.5488,-8.5475,-8.5476,-8.562,-8.5608,-8.5714,-8.5679,-8.5819,-8.5847,-8.5792,-8.5899,-8.5834,-8.5944,-8.5907,-8.6142,-8.6092,-8.6133,-8.6119,-8.63,-8.6284,-8.6901,-8.6976,-8.6406,-8.6411,-8.6416,0,-8.5634,-8.5766,-8.5767,-8.5831,-8.5845,-8.595,-8.6005,-8.5914,-8.5977,-8.6016,-8.6118,-8.6214,-8.6285,-8.6464,-8.6434,-8.6517,-8.6467,-8.6677,-8.6478,-8.6502,-8.6468,-8.646,-8.6472,-8.6717,-8.6724,-8.6729,-8.6734,0,-8.6136,-8.6099,-8.6183,-8.6257,-8.6326,-8.638,-8.6423,-8.6483,-8.6392,-8.6469,-8.6576,-8.6632,-8.6743,-8.684,-8.691,-8.6915,-8.6811,-8.6797,-8.6842,-8.6871,-8.6889,-8.688,-8.6241,-8.6783,-8.6778,-8.6774,-8.6772,-8.677,-8.6509,-8.6618,-8.6636,-8.6733,-8.6756,-8.6799,-8.6897,-8.6874,-8.6962,-8.7044,-8.6985,-8.7113,-8.7134,-8.7217,-8.7236,-8.7334,-8.7249,-8.7315,-8.7332,-8.7349,-8.7373,-8.6875,-8.7347,-8.7345,-8.7344,-8.7343,-8.7342,0,-8.7002,-8.7005,-8.7096,-8.7159,-8.7236,-8.713,-8.7172,-8.7243,-8.7357,-8.7386,-8.7458,-8.7582,-8.7675,-8.7652,-8.7735,-8.7818,-8.7772,-8.7843,-8.7835,-8.7838,-8.7446,-8.7397,-8.7879,-8.7879,-8.7878,-8.7878,-8.7878,-8.7878,-8.7268,-8.7447,-8.7413,-8.7603,-8.7604,-8.7727,-8.776,-8.7799,-8.7821,-8.7964,-8.804,-8.8024,-8.8033,-8.8115,-8.8196,-8.8186,-8.8222,-8.8311,-8.8285,-8.7919,-8.7866,-8.7815,-8.7769,-8.832,-8.8321,-8.8668,-8.8671,-8.8674]},{"header":{"parameterUnit":"m.s-1","parameterCategory":1,"la1":30.2991,"la2":30.254,"lo1":-89.0895,"lo2":-89.0444,"dy":0.0017,"dx":0.0017,"nx":28,"ny":28,"refTime":"2024-06-19T03:00:00:Z","depth":0,"parameterNumber":3,"parameterNumberName":"V-component_of_WINDS"},"data":[0,0,0,0,0,0,0,0,0,0,0,0,0,0,0,0,0,0,0,0,0,0,0,0,0,0,0,0,0,0,0,0,0,0,0,0,0,0,0,0,0,0,0,0,0,0,0,0,0,0,0,0,0,0,0,0,0,0,-0.4963,-0.4963,0,-0.4958,-0.4958,-0.4958,-0.5057,-0.506,-0.5063,-0.5065,-0.5054,-0.5051,-0.5048,0,0,0,0,0,0,0,0,0,0,0,0,0,-0.5052,-0.5049,-0.4963,-0.4963,-0.4963,-0.4958,-0.4958,-0.4958,-0.5057,-0.506,-0.5063,-0.5067,-0.5055,-0.5051,-0.5048,0,0,0,0,0,0,0,0,0,0,0,0,0,-0.5026,-0.5049,-0.4963,-0.5012,-0.5016,-0.4958,-0.4958,-0.4958,-0.5056,-0.506,-0.5064,-0.5068,-0.5056,-0.5052,-0.5047,-0.494,0,0,-0.5035,-0.5033,0,0,0,0,0,0,0,0,-0.5027,-0.5023,-0.5005,-0.5009,-0.5013,-0.5013,-0.4985,-0.4952,-0.5055,-0.5041,-0.5065,-0.507,-0.5036,-0.5034,-0.5024,-0.494,-0.4939,-0.5034,-0.5032,-0.503,-0.5029,0,0,0,0,0,0,0,-0.5029,-0.5024,-0.4961,-0.5004,-0.501,-0.5032,-0.5033,-0.4979,-0.5016,-0.5042,-0.505,-0.5048,-0.5039,-0.5028,-0.5024,-0.4939,-0.5034,-0.503,-0.5028,-0.5026,-0.4762,-0.4758,0,0,0,0,0,0,-0.5025,-0.5024,-0.4961,-0.4961,-0.5031,-0.5027,-0.5028,-0.5009,-0.5017,-0.5022,-0.5045,-0.5053,-0.5033,-0.5029,-0.5024,-0.4896,-0.503,-0.5026,-0.5023,-0.4767,-0.4761,-0.4757,0,0,0,0,0,0,-0.5027,-0.5019,-0.4961,-0.4995,-0.4989,-0.5021,-0.4999,-0.5006,-0.4995,-0.5018,-0.5025,-0.5026,-0.5036,-0.503,-0.496,-0.4897,-0.5024,-0.502,-0.4772,-0.4765,-0.4759,-0.464,0,0,0,0,0,0,-0.5029,-0.5019,-0.498,-0.4993,-0.4987,-0.4899,-0.4995,-0.5003,-0.4988,-0.4999,-0.5003,-0.5007,-0.5039,-0.4966,-0.4956,-0.4894,-0.5017,-0.4778,-0.4769,-0.4761,-0.465,-0.4631,-0.4614,0,0,0,0,0,-0.5032,-0.4946,-0.4978,-0.4969,-0.494,-0.4895,-0.4891,-0.4931,-0.4983,-0.4943,-0.4957,-0.5007,-0.4907,-0.4958,-0.4947,-0.4883,-0.4782,-0.4772,-0.4762,-0.4658,-0.4634,-0.4614,0,0,0,0,0,0,-0.4923,-0.4949,-0.4984,-0.4901,-0.4895,-0.4912,-0.4863,-0.4905,-0.4883,-0.4893,-0.4942,-0.4942,-0.4862,-0.4867,-0.4923,-0.4778,-0.4853,-0.484,-0.4778,-0.4755,-0.4737,-0.4736,-0.5013,0,0,0,0,0,-0.489,-0.4854,-0.4878,-0.4802,-0.4797,-0.483,-0.4812,-0.4843,-0.4839,-0.4836,-0.4846,-0.4838,-0.4804,-0.478,-0.4751,-0.4652,-0.4652,-0.4603,-0.4584,-0.457,-0.4557,-0.4501,-0.4478,-0.4724,-0.4724,-0.4724,0,0,-0.482,-0.483,-0.4804,-0.478,-0.478,-0.4738,-0.4828,-0.4781,-0.4749,-0.4829,-0.4762,-0.4769,-0.4763,-0.4676,-0.4639,-0.4677,-0.4489,-0.4557,-0.4545,-0.454,-0.4488,-0.4465,-0.4444,-0.4717,-0.4718,-0.4719,0,0,-0.4671,-0.4676,-0.4612,-0.461,-0.4608,-0.463,-0.4615,-0.4625,-0.4633,-0.4568,-0.4625,-0.4588,-0.453,-0.4522,-0.451,-0.4356,-0.4399,-0.4345,-0.4249,-0.4194,-0.4174,-0.4157,-0.4098,-0.4077,-0.4333,-0.4333,-0.4333,0,-0.4583,-0.4526,-0.4573,-0.4522,-0.4508,-0.458,-0.4513,-0.4508,-0.4495,-0.4483,-0.4527,-0.4453,-0.4454,-0.4365,-0.4327,-0.4317,-0.4298,-0.4343,-0.4174,-0.4157,-0.4142,-0.4086,-0.4064,-0.4326,-0.4327,-0.4327,-0.4328,0,-0.4416,-0.4375,-0.4323,-0.431,-0.4291,-0.4232,-0.4268,-0.4242,-0.4275,-0.4291,-0.4222,-0.4226,-0.4196,-0.4179,-0.421,-0.4093,-0.4116,-0.4166,-0.4242,-0.411,-0.4058,-0.4038,-0.4316,-0.4318,-0.432,-0.4322,0,0,-0.4197,-0.4211,-0.4191,-0.4185,-0.4188,-0.4155,-0.4098,-0.4072,-0.4046,-0.4036,-0.3986,-0.3935,-0.3981,-0.3967,-0.3998,-0.395,-0.3822,-0.4006,-0.4006,-0.3968,-0.3689,-0.3648,-0.3623,-0.3853,-0.3849,-0.3846,-0.3688,0,-0.4049,-0.3954,-0.3994,-0.3894,-0.3854,-0.3921,-0.3871,-0.3866,-0.388,-0.3846,-0.3861,-0.3822,-0.3887,-0.3879,-0.3835,-0.3847,-0.3766,-0.386,-0.3803,-0.3801,-0.3799,-0.3597,-0.3554,-0.3404,-0.3668,-0.3665,-0.3663,0,-0.3863,-0.3845,-0.3741,-0.3749,-0.3734,-0.3688,-0.3665,-0.3633,-0.3627,-0.3641,-0.3625,-0.3665,-0.3607,-0.3685,-0.3602,-0.3665,-0.3644,-0.3647,-0.3642,-0.3635,-0.3721,-0.358,-0.3358,-0.3334,-0.3632,-0.3634,-0.3637,0,-0.3708,-0.3658,-0.3589,-0.3582,-0.359,-0.3556,-0.3557,-0.3556,-0.3536,-0.3516,-0.3502,-0.3475,-0.3458,-0.3435,-0.3465,-0.352,-0.3377,-0.3459,-0.3382,-0.3381,-0.3346,-0.3347,-0.3113,-0.3339,-0.334,-0.334,-0.334,0,-0.3536,-0.3469,-0.3519,-0.3476,-0.3401,-0.3448,-0.3371,-0.338,-0.3378,-0.3335,-0.3392,-0.335,-0.3395,-0.3357,-0.3381,-0.3306,-0.3299,-0.3305,-0.3312,-0.3298,-0.3296,-0.3282,-0.3292,-0.3334,-0.3335,-0.3337,-0.3338,0,-0.3349,-0.3381,-0.3309,-0.3323,-0.3325,-0.3268,-0.3279,-0.3238,-0.3256,-0.3201,-0.319,-0.3217,-0.3175,-0.3204,-0.3162,-0.3177,-0.3078,-0.3101,-0.308,-0.3085,-0.3005,-0.301,-0.2751,-0.2717,-0.2968,-0.2966,-0.2964,0,-0.3236,-0.3186,-0.3194,-0.317,-0.3168,-0.313,-0.311,-0.3153,-0.3129,-0.3118,-0.3076,-0.3039,-0.3011,-0.2939,-0.2953,-0.292,-0.294,-0.2851,-0.2935,-0.2921,-0.2933,-0.2934,-0.2927,-0.2833,-0.283,-0.2827,-0.2826,0,-0.3029,-0.3047,-0.3018,-0.2992,-0.2967,-0.2949,-0.2935,-0.2912,-0.2955,-0.2925,-0.2883,-0.2862,-0.2818,-0.2778,-0.275,-0.2749,-0.2792,-0.28,-0.2779,-0.2763,-0.2751,-0.2752,-0.3029,-0.2804,-0.2807,-0.2808,-0.2809,-0.281,-0.2872,-0.283,-0.2828,-0.2792,-0.2787,-0.2772,-0.2733,-0.2747,-0.2713,-0.2681,-0.2709,-0.2657,-0.2649,-0.2617,-0.2609,-0.2567,-0.2603,-0.2575,-0.2567,-0.2558,-0.2545,-0.2761,-0.2563,-0.2564,-0.2564,-0.2565,-0.2565,0,-0.2665,-0.2667,-0.2634,-0.2613,-0.2584,-0.2631,-0.2618,-0.2589,-0.2543,-0.2534,-0.2506,-0.2455,-0.2416,-0.2428,-0.2392,-0.2356,-0.2375,-0.2345,-0.2346,-0.2344,-0.2517,-0.2536,-0.233,-0.233,-0.233,-0.233,-0.233,-0.233,-0.2553,-0.2482,-0.2499,-0.2424,-0.2427,-0.2378,-0.2365,-0.2351,-0.2343,-0.2285,-0.2254,-0.2262,-0.226,-0.2225,-0.219,-0.2194,-0.2176,-0.2138,-0.2148,-0.2309,-0.2332,-0.2354,-0.2372,-0.2135,-0.2135,-0.1978,-0.1977,-0.1976]}]]